Regional Weather Roundup
Issued by NWS

Home | Current Version | Previous Version | Graphics & Text | Print | Product List | Glossary On
Versions: 1 2 3 4 5 6 7 8 9 10 11 12 13 14 15 16 17 18 19 20 21 22 23 24 25 26 27 28 29 30 31 32 33 34 35 36 37 38 39 40 41 42 43 44 45 46 47 48 49 50
000
ASUS43 KDTX 310910
RWRMI
MICHIGAN HOURLY REGIONAL WEATHER ROUNDUP
NATIONAL WEATHER SERVICE DETROIT/PONTIAC MI
500 AM EDT SUN AUG 31 2014

NOTE: "FAIR" INDICATES FEW OR NO CLOUDS BELOW 12,000 FEET WITH NO
SIGNIFICANT WEATHER AND/OR OBSTRUCTION TO VISIBILITY.

MIZ047>049-052>055-059>063-066>070-074>076-081>083-311000-
SOUTHEAST LOWER MICHIGAN

CITY           SKY/WX    TMP DP  RH WIND       PRES   REMARKS
ADRIAN         CLOUDY    70  68  93 SW3       29.94F
ALMA           PTCLDY    66  64  96 SW5       29.91S
BAD AXE        CLOUDY    69  69 100 W7        29.88S
CARO           PTCLDY    68  67  96 SW6       29.89S
DETROIT CITY   LGT RAIN  73  66  78 SW6       29.92S
DETROIT        CLOUDY    68  66  93 SW7       29.93F
FLINT          MOCLDY    69  65  86 SW5       29.91F
GROSSE ILE     CLOUDY    73  66  78 SW6       29.92F
HILLSDALE      CLOUDY    69  69 100 CALM      29.95S FOG
HOWELL         CLOUDY    66  66  98 W3        29.93S

CITY           SKY/WX    TMP DP  RH WIND       PRES   REMARKS
JACKSON        CLOUDY    68  66  93 SW5       29.94S
LAMBERTVILLE   CLOUDY    73  68  83 SW7       29.95S
LANSING        CLOUDY    68  66  93 SW6       29.92F
LAPEER         FAIR      69  65  89 W7        29.91S
MASON          CLOUDY    68  66  94 W3        29.93S
MONROE         CLOUDY    70  68  94 SW3       29.93F
MT. CLEMENS    CLOUDY    72  64  74 SW7       29.90S
PONTIAC        CLOUDY    68  66  93 SW5       29.92F
PORT HOPE        N/A     70  66  87 W7        29.85S
PORT HURON     CLOUDY    72  70  94 SW3       29.91S
TRI CITIES     PTCLDY    69  66  90 SW6       29.90S
TROY           CLOUDY    71  66  83 SW7       29.94S
SAGINAW HB     MOCLDY    70  70 100 W7        29.89S
$$
MIZ043>046-050>051-056>058-064>065-071>073-077>080-311000-
SOUTHWEST LOWER MICHIGAN

CITY           SKY/WX    TMP DP  RH WIND       PRES   REMARKS
BATTLE CREEK   CLOUDY    70  67  90 SW8       29.94S
BENTON HARBOR  MOCLDY    68  66  93 S6        29.93S
BIG RAPIDS     CLOUDY    66  65  97 W5        29.90F
COLDWATER      CLOUDY    71  70  97 SW3       29.95S FOG
FREMONT        FOG       62  62  97 CALM      29.91S VSB<1/4
HOLLAND        MOCLDY    67  65  93 S3        29.92F FOG
GRAND RAPIDS   MOCLDY    70  70 100 SW8       29.92S FOG
IONIA          CLOUDY    69  68  98 SW6       29.91F FOG
KALAMAZOO      CLOUDY    70  67  90 SW8       29.94S
LUDINGTON      CLOUDY    64  64  97 CALM      29.91S
MARSHALL       CLOUDY    68  67  98 SW3       29.93S
MOUNT PLEASANT PTCLDY    65  64  96 CALM      29.90S FOG
MUSKEGON       PTCLDY    66  63  90 CALM      29.91S
SOUTH HAVEN    MOCLDY    69  68  97 SW3       29.93S
$$
MIZ016>042-311000-
NORTHERN LOWER MICHIGAN

CITY           SKY/WX    TMP DP  RH WIND       PRES   REMARKS
ALPENA         LGT RAIN  65  63  93 W6        29.84R
BEAVER ISLAND  CLOUDY    61  60  97 W6        29.86S
BELLAIRE       CLOUDY    64  61  91 W3        29.88S
CADILLAC       CLOUDY    62  62 100 W6        29.91R
CHARLEVOIX     LGT RAIN  63  63 100 W9        29.90R
FRANKFORT      CLOUDY    65  59  82 W5        29.90S
GAYLORD        CLOUDY    61  60  97 W12       29.88S FOG
GRAYLING       CLOUDY    63  63 100 W6        29.89S FOG
HARBOR SPRINGS CLOUDY    63  61  94 W7        29.86R
HOUGHTON LAKE  CLOUDY    65  62  90 W10       29.90S
MANISTEE       CLOUDY    63  61  94 W3        29.91F
OSCODA         PTCLDY    65  64  98 W5        29.84S
PELLSTON       CLOUDY    62  61  96 W7        29.85R
ROGERS CITY    CLOUDY    64  63  94 SW9       29.83S
TRAVERSE CITY  CLOUDY    65  60  84 W9        29.88R
$$
MIZ007>008-015-311000-
EASTERN UPPER MICHIGAN

CITY           SKY/WX    TMP DP  RH WIND       PRES   REMARKS
KINROSS        CLOUDY    63  63 100 W8        29.82S
MACKINAC ISLAN LGT RAIN  60  60 100 W12       29.83R
NEWBERRY       CLOUDY    57  57  98 W5        29.84S
S. S. MARIE    CLOUDY    62  60  93 CALM      29.80S
MUNISING         N/A     61  58  90 NW12      29.88R
$$
MIZ004>006-011>014-085-311000-
CENTRAL UPPER MICHIGAN

CITY           SKY/WX    TMP DP  RH WIND       PRES   REMARKS
MANISTIQUE     CLOUDY    58  58  99 N3        29.86S
ESCANABA       CLOUDY    59  55  88 NW3       29.89S
MENOMINEE      CLOUDY    59  57  94 CALM      29.90S
SAWYER-GWINN   CLOUDY    57  56  95 N5        29.91R
$$
MIZ001>003-009>011-084-311000-
WESTERN UPPER MICHIGAN

CITY           SKY/WX    TMP DP  RH WIND       PRES   REMARKS
IRON MOUNTAIN  CLOUDY    57  55  93 NW7       29.91R
HOUGHTON       CLEAR     53  51  93 NW5       29.91R
COPPER HARBOR    N/A     54  52  93 CALM      29.91R
IRONWOOD       CLEAR     52  50  93 CALM      29.93R
$$

ABBREVIATIONS USED IN REMARKS
   TC - TEMPERATURE IN CELSIUS
  WCI - WIND CHILL INDEX
   HX - HEAT INDEX
  VSB - VISIBILITY




USA.gov is the U.S. government's official web portal to all federal, state and local government web resources and services.